GFSSE_250_rhum_162.txt.gz
RH
20 23 33 27 30 38 42 35 27 29 28 31 26 23 20 20 18 18 17 17 20 25 28 21 22 26 40 54 50 41 40 36 30 28 24 18 18 22 22 54 82 27 22
34 37 28 35 44 44 52 41 32 30 31 37 37 31 28 24 22 20 20 20 21 31 32 23 25 25 26 58 64 55 50 42 34 28 23 22 20 18 17 65 67 22 22
30 32 31 57 61 64 51 42 28 28 24 30 32 31 30 27 25 23 22 23 21 30 37 30 28 28 28 58 77 67 55 47 38 29 28 26 20 20 19 15 15 24 29
70 69 79 39 44 46 56 32 29 33 29 27 27 30 33 27 29 25 26 26 23 27 33 33 30 26 24 27 55 64 54 47 43 39 40 30 23 24 24 21 16 23 29
83 83 61 53 43 71 51 35 35 38 36 25 30 32 30 26 27 29 26 30 25 29 29 31 32 27 24 30 67 84 66 59 54 52 42 29 26 27 25 21 19 18 25
95 55 56 47 56 76 28 36 42 43 42 34 31 35 32 25 27 34 32 34 27 30 32 35 34 26 27 35 60 99 83 81 59 67 74 33 35 26 37 37 40 46 34
85 44 53 45 48 53 41 38 48 54 57 40 37 38 30 26 28 35 35 35 28 32 34 36 35 28 28 42 69 100 100 94 89 96 56 41 34 31 100 84 64 50 42
67 53 43 54 42 48 46 45 58 67 58 44 45 38 35 27 29 35 40 42 32 38 36 36 31 37 41 56 100 100 100 100 100 80 54 47 36 34 86 100 100 58 56
79 70 71 63 58 55 62 56 74 73 57 51 42 45 32 34 30 30 36 42 35 42 39 37 33 52 99 60 96 100 100 100 100 82 74 47 43 50 67 99 73 86 84
99 91 83 78 78 73 70 83 83 75 51 46 42 44 29 33 29 31 40 41 32 41 40 41 35 56 100 100 100 100 100 100 96 85 70 56 74 81 97 100 93 100 88
100 91 81 78 84 99 95 89 93 72 50 32 37 30 25 25 25 28 34 37 33 32 37 44 36 41 75 95 85 77 96 100 99 98 82 61 66 88 97 100 98 93 79
92 91 92 87 100 97 98 100 86 42 30 21 25 24 24 19 18 24 28 30 32 27 35 44 42 38 49 73 62 54 60 95 100 100 100 93 78 68 99 100 100 100 95
90 99 100 84 91 100 100 98 64 38 30 25 22 22 23 20 18 20 27 29 26 28 28 48 55 43 54 84 92 74 75 100 100 96 100 100 99 76 100 100 93 68 99
92 99 82 87 100 100 100 95 62 46 40 34 29 28 25 23 22 22 23 30 30 28 30 31 61 53 42 68 99 100 83 79 72 83 100 100 100 99 100 100 70 64 82
87 90 75 91 100 100 100 82 70 59 54 43 35 34 32 28 26 26 25 31 39 30 33 31 29 57 53 55 60 65 81 69 65 97 100 100 100 81 49 54 76 100 100
75 94 100 100 100 100 97 91 86 62 50 46 43 42 38 34 36 35 32 35 44 36 36 41 31 31 51 58 56 62 58 53 63 78 100 100 97 70 76 98 100 100 99
69 99 100 100 100 100 100 100 69 55 54 54 52 46 37 42 39 45 43 45 47 45 37 44 44 39 34 45 52 59 69 73 77 84 100 100 97 99 100 94 99 100 100
100 100 100 100 100 100 100 92 79 68 59 62 61 48 47 44 50 53 73 91 72 62 46 37 41 55 45 51 62 63 54 66 82 96 99 100 100 100 100 100 100 100 100
100 100 100 100 100 100 100 100 99 76 70 69 55 49 47 47 63 68 64 87 100 97 67 43 40 51 64 76 72 97 95 90 89 87 76 84 100 100 100 100 100 98 83
100 100 100 100 100 93 100 97 87 78 72 68 62 58 50 46 63 84 97 100 100 100 98 63 46 56 59 74 90 94 100 100 100 100 100 100 100 100 100 100 100 98 100
92 85 73 66 58 78 88 98 91 87 82 77 63 73 64 73 100 100 100 100 100 100 100 91 76 82 88 72 78 95 100 100 100 100 100 100 100 100 100 100 100 100 100
68 73 65 62 64 89 100 100 91 90 91 87 65 88 84 80 100 100 100 100 100 100 100 100 92 80 82 92 91 96 100 100 100 100 100 100 100 100 100 100 100 99 100
69 74 88 91 100 100 100 100 94 90 100 100 77 92 100 86 88 100 100 100 100 100 100 90 90 86 86 94 100 100 100 100 100 100 100 96 88 90 89 87 82 73 70
62 66 81 99 100 100 99 100 100 100 100 100 89 100 100 100 78 88 100 100 100 100 100 100 99 92 82 75 83 94 94 92 89 99 89 81 77 79 75 74 78 75 68
69 76 75 82 90 100 100 100 100 100 100 100 100 100 100 100 100 90 95 100 100 100 100 100 100 100 96 98 83 75 89 86 77 83 90 93 57 57 70 68 76 80 77
61 64 60 63 62 76 99 100 100 100 100 100 100 100 100 100 100 100 99 96 86 100 100 100 100 100 100 100 100 100 100 96 100 100 100 100 98 86 84 100 99 99 85

GFSSE_250_rhum_165.txt.gz
RH
20 25 31 31 39 25 28 47 37 21 25 39 37 34 26 22 20 20 20 20 22 20 18 16 23 28 23 20 24 40 48 50 43 43 38 32 28 22 20 19 18 16 44
26 38 66 57 46 33 27 46 37 21 29 45 46 35 31 29 24 19 19 21 23 23 20 20 28 31 26 24 26 36 57 58 51 50 46 40 34 25 24 21 22 19 14
30 48 53 78 37 24 26 38 42 30 36 49 56 40 39 39 28 20 19 20 20 22 20 19 29 34 32 28 29 36 76 80 70 54 51 37 31 33 34 23 23 23 16
31 54 61 50 28 34 34 32 26 33 36 56 55 51 46 44 33 24 20 22 22 22 23 19 22 32 34 35 27 28 41 72 70 64 56 40 40 38 29 27 26 24 22
20 61 65 42 45 54 52 49 42 46 45 68 66 52 49 46 38 27 24 23 21 21 22 20 23 30 34 33 28 25 32 67 78 71 62 60 46 40 35 34 25 35 37
25 44 92 64 73 80 66 57 56 58 54 73 72 57 41 36 38 29 29 25 22 21 22 20 23 28 35 32 24 28 36 70 85 84 74 58 70 69 38 32 66 70 42
33 41 99 83 85 75 61 65 76 70 57 70 75 48 37 32 24 21 26 25 25 21 20 20 22 30 31 32 28 29 40 55 77 82 79 66 89 53 46 34 87 93 76
34 53 81 94 82 77 72 79 83 72 72 83 77 37 26 21 20 19 22 25 23 25 25 22 24 29 34 37 95 46 55 94 84 75 99 100 79 56 56 64 89 100 81
76 77 92 82 87 80 78 97 85 80 79 89 73 34 25 22 19 18 19 20 22 24 28 27 24 28 39 38 93 99 63 91 93 96 100 98 73 59 69 91 92 100 100
75 100 100 100 82 64 75 97 86 95 100 98 75 49 35 28 25 19 19 20 18 24 28 31 27 24 37 38 66 100 100 100 100 100 100 98 77 50 79 100 100 100 100
70 83 72 80 87 74 77 80 85 100 100 97 84 65 43 35 27 25 22 23 19 23 28 31 32 28 32 40 39 81 99 95 98 100 99 100 86 64 74 96 100 100 91
69 60 71 70 74 79 76 71 99 100 100 98 84 70 45 36 31 30 30 27 25 21 25 33 33 33 24 40 35 37 78 80 66 97 100 100 100 96 82 96 100 81 100
72 72 63 52 66 70 65 78 100 100 100 100 81 68 50 38 38 32 32 22 28 24 25 28 36 32 31 28 52 38 57 87 99 100 100 100 100 100 100 100 100 80 78
53 48 38 29 37 47 89 99 100 100 100 100 100 73 57 49 46 42 37 26 26 30 30 28 36 36 33 31 37 58 66 98 100 100 100 96 92 88 100 100 100 100 100
54 36 34 30 71 100 94 100 100 100 100 95 92 87 66 60 52 52 39 35 34 32 34 35 34 37 41 32 27 41 61 58 68 80 98 91 84 85 76 74 90 97 71
40 45 59 68 88 100 100 100 100 100 100 100 98 91 86 78 68 61 47 42 37 37 41 52 46 45 42 41 31 26 38 73 71 70 81 76 67 82 90 99 98 100 87
100 100 100 100 100 100 100 100 100 100 100 100 100 100 98 87 75 68 56 46 42 44 45 58 89 95 72 54 40 37 27 35 59 66 69 76 84 88 100 100 94 90 99
100 100 100 100 100 100 100 100 100 100 100 100 100 100 96 90 84 71 61 57 44 43 73 77 99 100 100 92 58 54 53 37 36 53 61 67 85 90 92 96 93 96 87
94 94 91 82 82 94 100 96 87 87 78 79 100 100 100 95 88 84 69 62 59 60 94 71 99 100 100 100 88 62 80 90 79 76 91 94 91 90 91 92 94 98 100
88 89 94 76 88 92 98 96 98 99 100 100 100 100 100 100 98 99 79 80 72 84 100 95 100 100 100 100 100 91 87 97 100 100 100 100 100 100 100 100 100 100 100
70 78 72 92 95 100 100 100 100 100 100 100 100 100 100 100 100 100 72 89 90 92 100 100 93 100 100 100 100 100 97 100 100 100 100 100 100 100 100 100 100 100 100
41 57 74 78 94 100 100 100 100 100 100 100 96 100 96 90 94 100 87 86 100 100 100 100 93 98 100 100 100 99 79 97 100 100 100 100 100 100 100 100 100 100 100
41 39 45 64 83 87 100 100 100 100 100 100 100 100 100 100 100 100 100 96 100 100 100 100 100 100 100 100 100 99 89 95 96 99 100 100 100 100 100 100 100 92 83
30 32 56 70 99 100 100 100 100 100 100 100 100 100 100 100 100 100 100 100 100 100 100 100 100 100 100 100 98 100 88 97 100 100 100 100 100 100 100 100 100 94 77
29 44 68 78 95 100 100 100 100 100 100 100 100 100 100 100 100 100 100 100 100 100 100 100 100 100 100 100 100 100 100 97 96 97 100 100 94 94 81 91 80 94 86
30 53 54 77 99 100 100 100 100 100 100 100 100 100 100 100 100 100 100 100 100 100 100 100 100 100 100 100 100 100 100 100 100 100 97 97 84 86 94 89 79 63 54

GFSSE_250_rhum_168.txt.gz
RH
12 14 26 23 25 37 25 29 36 32 33 36 33 48 33 33 18 19 17 15 14 15 15 17 18 16 16 26 29 23 24 28 42 44 46 43 41 37 33 28 23 22 19
16 15 22 33 31 28 31 42 34 22 28 42 41 42 42 28 21 16 15 15 14 15 16 17 18 17 18 22 27 26 27 33 48 65 58 48 51 56 39 28 25 28 22
23 21 20 35 51 32 31 35 34 28 26 35 44 46 48 30 24 19 13 13 14 14 15 15 16 16 17 21 25 27 28 34 49 67 67 64 55 51 42 40 37 28 27
35 39 25 22 29 39 41 41 37 41 27 38 52 54 57 46 31 19 15 13 13 14 16 17 16 16 19 26 28 30 29 28 36 60 79 69 61 46 41 41 36 31 33
42 50 46 31 29 35 51 63 51 49 37 34 55 65 62 59 47 25 19 15 14 14 14 18 20 17 17 25 31 32 31 26 26 45 73 71 68 61 48 43 54 51 40
52 64 55 38 34 47 60 65 65 48 44 32 50 70 89 75 59 32 23 18 16 18 17 17 21 20 17 22 31 27 26 26 25 53 84 90 76 65 58 64 63 45 62
63 77 58 46 42 54 75 79 68 54 58 35 50 75 100 86 72 44 31 21 21 21 20 18 20 24 19 18 28 29 59 44 33 56 84 84 77 72 51 84 46 44 69
90 89 66 53 52 76 67 59 63 69 61 42 47 76 100 94 84 55 37 27 22 24 21 18 19 24 24 18 27 33 62 74 43 90 84 67 66 91 82 89 68 82 81
94 90 70 54 51 49 44 49 54 60 63 53 47 75 98 100 93 64 46 34 28 26 22 20 18 21 28 22 21 33 47 70 54 91 91 100 100 100 86 60 64 95 100
100 98 80 68 55 51 48 42 39 64 94 74 83 89 96 100 97 70 52 40 34 30 28 23 21 18 26 31 20 34 40 71 60 68 73 92 100 100 85 81 49 100 100
100 96 79 65 64 60 56 46 41 50 91 72 82 83 100 100 100 85 54 46 39 38 33 25 24 23 20 32 32 21 46 39 71 62 77 94 85 99 92 89 99 90 88
96 83 71 81 70 67 53 35 33 58 75 77 85 93 100 100 100 91 62 56 44 43 39 31 27 27 25 26 34 28 38 85 58 66 62 66 89 99 100 96 100 99 83
78 57 68 73 71 47 38 50 68 78 75 85 94 100 100 100 100 92 78 66 53 50 42 35 32 30 27 28 32 62 41 89 84 80 72 68 78 100 100 100 100 100 99
72 58 55 54 39 41 67 74 71 69 63 86 100 100 100 100 100 98 95 83 72 57 48 41 37 36 34 27 31 46 57 41 78 100 89 89 84 82 99 100 100 100 100
65 60 58 81 81 85 96 94 89 88 95 100 100 100 100 100 100 100 97 99 80 63 52 47 46 43 36 35 35 42 46 58 37 39 69 71 79 82 74 81 91 100 100
67 99 100 100 100 98 93 100 100 100 100 100 100 100 100 100 99 100 100 98 90 77 68 47 45 44 38 42 46 71 80 67 64 40 28 46 69 76 93 92 80 79 94
100 100 97 100 94 84 67 67 76 79 86 100 100 100 100 94 90 93 74 81 96 90 78 61 45 47 44 42 51 79 90 97 88 66 47 36 53 62 64 70 70 72 89
100 92 80 74 70 58 52 45 55 86 100 100 100 100 100 93 93 95 74 79 100 100 100 77 53 54 61 66 89 91 91 100 99 87 76 56 37 50 66 83 81 92 98
100 100 99 79 70 55 39 77 99 100 100 100 100 92 100 99 96 82 82 93 92 100 93 100 76 65 76 89 100 100 100 100 100 97 88 89 78 60 60 63 63 61 69
78 74 73 71 62 59 67 77 88 100 100 100 99 100 100 100 93 80 88 97 96 98 100 100 99 84 100 98 100 100 100 100 100 100 98 96 93 97 87 83 84 92 92
62 60 69 69 55 59 56 81 99 100 100 100 100 100 100 100 100 100 100 100 100 100 100 100 100 99 96 100 100 100 100 100 100 100 100 93 93 98 100 98 100 100 100
18 20 22 33 59 80 100 100 100 100 100 100 100 100 100 100 100 100 100 100 100 100 100 100 100 100 100 100 100 100 100 89 89 100 100 100 91 98 100 100 100 100 100
18 18 32 47 60 76 100 100 100 100 100 100 100 100 100 100 96 78 90 100 100 100 100 100 100 100 100 100 100 100 100 100 100 100 100 99 95 89 86 90 100 100 100
19 28 43 57 73 100 100 100 100 100 100 100 100 100 100 100 100 100 100 96 92 100 100 100 100 99 100 100 99 100 100 100 100 100 100 100 100 99 100 100 100 100 100
23 25 28 41 66 79 52 94 100 100 100 100 100 100 100 100 100 100 100 100 100 91 100 100 100 100 80 100 100 100 97 100 100 100 100 100 100 100 100 100 100 100 100
30 31 35 37 36 48 65 59 83 90 98 99 99 100 100 100 100 100 100 100 100 100 100 100 100 100 100 100 100 100 100 100 100 100 100 100 100 100 100 100 100 100 100

GFSSE_250_rhum_171.txt.gz
RH
26 28 33 34 33 23 22 20 19 16 25 30 21 18 22 35 48 48 28 16 13 12 12 12 13 13 10 12 15 22 30 29 24 24 39 63 55 42 41 40 36 32 27
28 33 35 37 38 33 26 20 21 24 37 27 29 18 22 28 63 64 38 29 15 14 13 15 16 14 14 11 12 18 27 30 29 31 39 67 68 51 50 55 50 35 32
38 36 40 39 48 41 26 24 27 42 38 33 26 21 20 32 57 78 57 34 27 18 17 16 17 18 18 14 12 21 24 29 31 31 34 60 76 66 60 54 40 38 37
46 41 50 50 49 50 40 30 24 28 38 36 27 26 28 28 40 69 76 57 38 22 19 19 20 19 20 19 12 18 23 25 29 33 30 42 72 82 66 61 41 44 46
39 45 68 64 57 56 54 45 36 35 34 34 31 24 33 35 40 67 82 76 45 32 24 21 20 19 20 21 15 14 23 23 27 28 29 30 43 79 71 56 42 44 47
46 70 83 81 62 66 59 52 47 42 43 39 34 22 31 51 50 62 86 85 59 45 28 24 22 20 22 22 24 13 21 26 29 23 24 31 40 58 71 65 56 45 58
48 59 84 85 89 70 62 55 53 48 43 41 26 26 38 42 56 57 99 91 79 44 36 28 25 18 22 32 26 22 17 27 42 56 32 37 49 72 82 76 57 47 63
90 84 93 92 90 76 61 60 52 47 43 34 25 37 51 50 50 65 91 100 94 59 39 34 28 21 20 26 40 30 18 22 34 49 43 40 60 63 90 90 83 61 88
100 100 99 91 73 60 65 67 60 47 41 32 31 49 50 47 52 58 100 94 99 88 47 42 33 25 21 24 27 42 32 17 26 46 49 96 86 100 85 100 99 89 83
100 100 92 68 67 81 85 68 57 49 38 35 35 49 64 62 66 68 100 97 100 95 62 51 41 32 26 23 26 27 42 35 20 36 72 64 59 53 97 100 100 100 81
60 74 67 64 72 71 64 58 57 43 33 28 42 75 85 79 72 65 96 100 89 98 81 69 50 40 32 31 31 35 44 55 48 45 48 63 80 76 77 98 100 100 100
63 72 70 68 83 73 57 54 55 53 70 74 96 100 92 88 98 100 93 100 99 93 84 75 68 45 34 33 52 51 42 68 66 46 49 58 49 84 100 100 100 95 100
96 86 80 63 62 57 59 59 93 100 100 100 84 79 74 99 100 100 100 100 100 86 76 65 59 59 44 39 34 45 40 62 85 64 55 63 59 50 98 100 100 100 100
80 80 60 49 45 42 58 100 100 95 86 83 64 61 100 100 100 100 100 100 100 90 84 66 66 65 59 47 36 38 38 43 86 91 73 58 51 73 77 100 100 100 100
88 79 77 62 73 89 100 100 100 79 83 77 72 77 92 100 99 99 100 100 100 80 60 57 57 57 65 56 48 44 44 41 77 100 100 88 72 39 54 73 83 99 100
97 96 66 63 66 77 92 95 90 76 90 89 100 100 100 100 100 99 99 100 92 83 70 66 58 66 84 76 62 56 48 47 54 100 100 93 89 62 32 43 49 60 76
67 67 72 74 62 56 63 89 84 80 98 100 100 100 100 100 100 82 100 100 96 98 90 75 64 66 92 82 90 84 63 59 62 100 100 100 100 99 62 38 33 54 70
97 94 89 80 81 77 77 63 54 70 100 100 100 100 100 100 100 100 100 100 100 100 85 73 74 100 100 100 100 100 90 66 79 94 100 100 100 100 96 65 45 40 47
100 100 94 86 80 72 82 91 97 100 99 97 100 100 100 100 100 100 96 100 100 80 96 84 87 100 100 100 100 100 100 79 78 100 94 98 86 99 100 99 77 62 52
90 88 83 79 66 68 68 100 100 100 91 99 100 82 100 100 100 100 100 100 86 94 100 93 100 100 100 100 100 100 100 97 80 96 97 100 100 100 100 100 100 89 80
71 65 52 42 42 46 89 100 100 100 100 100 100 100 100 100 100 100 100 100 100 93 78 84 96 100 96 100 100 100 100 97 98 94 100 100 100 100 100 100 100 95 88
38 34 30 27 25 28 88 100 100 100 100 100 100 100 100 100 100 100 100 100 99 98 71 82 62 82 81 92 85 95 100 100 100 100 87 99 100 100 100 100 100 100 100
26 25 24 24 25 31 92 100 100 100 100 100 100 100 100 100 100 100 100 100 100 100 94 100 95 65 74 78 95 100 100 100 100 100 100 99 100 100 100 100 100 100 93
26 25 26 30 40 47 88 100 98 91 100 100 100 100 97 100 100 100 100 100 100 100 100 100 94 98 97 79 79 84 100 100 100 92 99 100 100 100 100 100 100 100 100
36 45 45 46 43 47 30 29 31 28 33 35 79 100 100 100 100 100 100 100 100 100 100 100 100 100 100 100 100 86 99 100 100 100 88 91 99 100 100 100 100 100 100
55 70 72 69 59 50 46 40 39 34 34 59 95 40 94 100 100 100 100 100 100 100 100 100 100 100 100 100 100 100 100 100 100 100 100 100 94 76 90 100 100 100 100